Hourly Weather Bolshoe Ababe

Today, 30 July, Friday

Time Temperature Precipitation Wind Pressure Humidity
00:00 +17°C° 0 mm 2 mps 743 mmHg 90%
01:00 +17°C° 0 mm 2 mps 743 mmHg 90%
02:00 +17°C° 0 mm 2 mps 743 mmHg 90%
03:00 +17°C° 0.1 mm 2 mps 743 mmHg 92%
04:00 +16°C° 0.1 mm 2 mps 743 mmHg 93%
05:00 +16°C° 0.1 mm 2 mps 743 mmHg 94%
06:00 +17°C° 0.2 mm 2 mps 743 mmHg 92%
07:00 +17°C° 0.2 mm 2 mps 743 mmHg 90%
08:00 +18°C° 0.2 mm 2 mps 743 mmHg 88%
09:00 +20°C° 0.1 mm 3 mps 743 mmHg 75%
10:00 +21°C° 0.1 mm 4 mps 743 mmHg 62%
11:00 +23°C° 0.1 mm 5 mps 743 mmHg 49%
12:00 +25°C° 0 mm 5 mps 742 mmHg 44%
13:00 +24°C° 0 mm 6 mps 742 mmHg 39%
14:00 +26°C° 0 mm 6 mps 742 mmHg 35%
15:00 +26°C° 0 mm 6 mps 741 mmHg 36%
16:00 +26°C° 0 mm 6 mps 741 mmHg 38%
17:00 +25°C° 0 mm 5 mps 741 mmHg 40%
18:00 +23°C° 0 mm 5 mps 741 mmHg 44%
19:00 +22°C° 0 mm 5 mps 741 mmHg 48%
20:00 +20°C° 0 mm 5 mps 741 mmHg 52%
21:00 +19°C° 0 mm 5 mps 741 mmHg 57%
22:00 +17°C° 0 mm 5 mps 741 mmHg 62%
23:00 +17°C° 0 mm 4 mps 741 mmHg 66%

Tomorrow, 31 July, Saturday

Time Temperature Precipitation Wind Pressure Humidity
00:00 +16°C° 0 mm 5 mps 741 mmHg 67%
01:00 +16°C° 0 mm 5 mps 740 mmHg 67%
02:00 +16°C° 0 mm 5 mps 740 mmHg 67%
03:00 +16°C° 0 mm 5 mps 740 mmHg 69%
04:00 +16°C° 0 mm 5 mps 740 mmHg 70%
05:00 +15°C° 0 mm 5 mps 740 mmHg 72%
06:00 +17°C° 0 mm 6 mps 741 mmHg 70%
07:00 +19°C° 0 mm 6 mps 741 mmHg 69%
08:00 +20°C° 0 mm 6 mps 741 mmHg 67%
09:00 +21°C° 0 mm 6 mps 742 mmHg 62%
10:00 +23°C° 0 mm 6 mps 742 mmHg 57%
11:00 +24°C° 0 mm 6 mps 742 mmHg 52%
12:00 +26°C° 0 mm 6 mps 742 mmHg 50%
13:00 +26°C° 0 mm 5 mps 742 mmHg 48%
14:00 +27°C° 0 mm 5 mps 742 mmHg 45%
15:00 +27°C° 0 mm 4 mps 742 mmHg 46%
16:00 +26°C° 0 mm 4 mps 742 mmHg 46%
17:00 +26°C° 0 mm 4 mps 742 mmHg 47%
18:00 +25°C° 0 mm 3 mps 742 mmHg 54%
19:00 +22°C° 0 mm 3 mps 742 mmHg 60%
20:00 +20°C° 0 mm 2 mps 742 mmHg 67%
21:00 +20°C° 0 mm 2 mps 742 mmHg 68%
22:00 +20°C° 0 mm 2 mps 742 mmHg 68%
23:00 +19°C° 0 mm 2 mps 742 mmHg 69%

Day after tomorrow, 1 August, Sunday

Time Temperature Precipitation Wind Pressure Humidity
00:00 +19°C° 0.3 mm 2 mps 742 mmHg 77%
01:00 +18°C° 0.3 mm 2 mps 742 mmHg 84%
02:00 +18°C° 0.3 mm 3 mps 742 mmHg 92%
03:00 +18°C° 0 mm 3 mps 742 mmHg 92%
04:00 +18°C° 0 mm 3 mps 741 mmHg 93%
05:00 +18°C° 0 mm 3 mps 741 mmHg 93%
06:00 +19°C° 0 mm 3 mps 741 mmHg 89%
07:00 +19°C° 0 mm 4 mps 742 mmHg 85%
08:00 +20°C° 0 mm 4 mps 742 mmHg 80%
09:00 +22°C° 0 mm 4 mps 742 mmHg 69%
10:00 +23°C° 0 mm 5 mps 742 mmHg 57%
11:00 +26°C° 0 mm 5 mps 742 mmHg 46%
12:00 +26°C° 0 mm 5 mps 742 mmHg 44%
13:00 +27°C° 0 mm 5 mps 742 mmHg 42%
14:00 +27°C° 0 mm 5 mps 742 mmHg 40%
15:00 +27°C° 0 mm 5 mps 742 mmHg 41%
16:00 +27°C° 0 mm 5 mps 743 mmHg 43%
17:00 +27°C° 0 mm 4 mps 743 mmHg 45%
18:00 +25°C° 0 mm 4 mps 743 mmHg 51%
19:00 +22°C° 0 mm 3 mps 743 mmHg 58%
20:00 +21°C° 0 mm 2 mps 743 mmHg 64%
21:00 +20°C° 0 mm 2 mps 743 mmHg 67%
22:00 +20°C° 0 mm 1 mps 743 mmHg 69%
23:00 +20°C° 0 mm 1 mps 743 mmHg 72%

2 August, Monday

Time Temperature Precipitation Wind Pressure Humidity
00:00 +19°C° 0.2 mm 1 mps 743 mmHg 77%
01:00 +19°C° 0.2 mm 1 mps 743 mmHg 83%
02:00 +17°C° 0.2 mm 2 mps 743 mmHg 89%
03:00 +18°C° 0.6 mm 1 mps 743 mmHg 91%
04:00 +16°C° 0.6 mm 1 mps 743 mmHg 93%
05:00 +16°C° 0.6 mm 1 mps 742 mmHg 96%
06:00 +16°C° 1.5 mm 1 mps 742 mmHg 96%
07:00 +16°C° 1.5 mm 1 mps 742 mmHg 97%
08:00 +16°C° 1.5 mm 1 mps 742 mmHg 98%
09:00 +16°C° 1.9 mm 1 mps 742 mmHg 97%
10:00 +16°C° 1.9 mm 1 mps 741 mmHg 97%
11:00 +16°C° 1.9 mm 1 mps 741 mmHg 96%
12:00 +16°C° 1.3 mm 2 mps 741 mmHg 96%
13:00 +16°C° 1.3 mm 2 mps 741 mmHg 96%
14:00 +16°C° 1.3 mm 2 mps 742 mmHg 96%
15:00 +17°C° 0.1 mm 2 mps 742 mmHg 92%
16:00 +18°C° 0.1 mm 2 mps 742 mmHg 88%
17:00 +18°C° 0.1 mm 2 mps 742 mmHg 84%
18:00 +18°C° 0.2 mm 2 mps 742 mmHg 87%
19:00 +17°C° 0.2 mm 2 mps 742 mmHg 89%
20:00 +16°C° 0.2 mm 2 mps 742 mmHg 92%
21:00 +16°C° 0.1 mm 2 mps 742 mmHg 94%
22:00 +14°C° 0.1 mm 3 mps 742 mmHg 95%
23:00 +14°C° 0.1 mm 3 mps 743 mmHg 97%

3 August, Tuesday

Time Temperature Precipitation Wind Pressure Humidity
00:00 +13°C° 0 mm 3 mps 743 mmHg 97%
01:00 +13°C° 0 mm 3 mps 743 mmHg 97%
02:00 +13°C° 0 mm 3 mps 744 mmHg 97%
03:00 +12°C° 0 mm 3 mps 744 mmHg 97%
04:00 +12°C° 0 mm 3 mps 744 mmHg 97%
05:00 +11°C° 0 mm 3 mps 744 mmHg 96%
06:00 +12°C° 0 mm 3 mps 745 mmHg 93%
07:00 +14°C° 0 mm 3 mps 745 mmHg 89%
08:00 +15°C° 0 mm 4 mps 745 mmHg 86%
09:00 +17°C° 0.2 mm 4 mps 745 mmHg 84%
10:00 +17°C° 0.2 mm 4 mps 746 mmHg 82%
11:00 +18°C° 0.2 mm 3 mps 746 mmHg 80%
12:00 +18°C° 0.2 mm 3 mps 746 mmHg 77%
13:00 +19°C° 0.2 mm 3 mps 746 mmHg 75%
14:00 +19°C° 0.2 mm 3 mps 747 mmHg 73%
15:00 +20°C° 0.1 mm 3 mps 747 mmHg 70%
16:00 +20°C° 0.1 mm 2 mps 747 mmHg 67%
17:00 +21°C° 0.1 mm 2 mps 747 mmHg 63%
18:00 +20°C° 0.1 mm 1 mps 747 mmHg 68%
19:00 +19°C° 0.1 mm 1 mps 748 mmHg 74%
20:00 +15°C° 0.1 mm 0 mps 748 mmHg 79%
21:00 +14°C° 0 mm 0 mps 748 mmHg 80%
22:00 +14°C° 0 mm 1 mps 749 mmHg 82%
23:00 +14°C° 0 mm 1 mps 749 mmHg 84%

4 August, Wednesday

Time Temperature Precipitation Wind Pressure Humidity
00:00 +13°C° 0 mm 1 mps 749 mmHg 83%
01:00 +13°C° 0 mm 1 mps 749 mmHg 82%
02:00 +13°C° 0 mm 1 mps 750 mmHg 81%
03:00 +13°C° 0 mm 1 mps 750 mmHg 80%
04:00 +13°C° 0 mm 1 mps 750 mmHg 80%
05:00 +13°C° 0 mm 1 mps 750 mmHg 80%
06:00 +14°C° 0 mm 1 mps 750 mmHg 74%
07:00 +16°C° 0 mm 1 mps 751 mmHg 68%
08:00 +19°C° 0 mm 1 mps 751 mmHg 62%
09:00 +20°C° 0 mm 1 mps 751 mmHg 59%
10:00 +21°C° 0 mm 1 mps 751 mmHg 57%
11:00 +22°C° 0 mm 1 mps 751 mmHg 54%
12:00 +23°C° 0.1 mm 1 mps 751 mmHg 53%
13:00 +23°C° 0.1 mm 2 mps 751 mmHg 52%
14:00 +24°C° 0.1 mm 2 mps 751 mmHg 51%
15:00 +24°C° 0.1 mm 1 mps 750 mmHg 54%
16:00 +23°C° 0.1 mm 1 mps 750 mmHg 57%
17:00 +23°C° 0.1 mm 1 mps 750 mmHg 60%
18:00 +21°C° 0.2 mm 1 mps 750 mmHg 66%
19:00 +20°C° 0.2 mm 1 mps 750 mmHg 73%
20:00 +18°C° 0.2 mm 2 mps 750 mmHg 79%
21:00 +17°C° 0.2 mm 2 mps 750 mmHg 82%
22:00 +17°C° 0.2 mm 2 mps 749 mmHg 85%
23:00 +16°C° 0.2 mm 2 mps 749 mmHg 88%
Show more

We Need Your Consent

Meteoprog and our Service Providers may store and access personal data such as cookies, device identifiers or other similar technologies on your device and process such data to personalise content and ads, as well as provide social media features and to analyse the traffic.

  • Store and/or access information on your device

    Cookies, device identifiers or other information can be stored or accessed on your device for the purposes indicated above.

  • Personalised ads and content, ad and content measurement, audience insights, and products development

    Ads and content can be personalised based on a profile. More data can be added to better personalise ads and content. Ad and content performance can be measured. Insights about the audience who saw the ads and content can be derived. Such data can be used to develop or improve user’s experience, systems and software.

By clicking ‘I Agree’ you will allow the use of indicated cookies, device identifiers, web beacons or other similar technologies. Your settings can be changed in the browser on your device.

For certain purposes, legitimate interests may be relied on, rather than consent. You can read more about this in our Privacy and Cookie Policy.